EW0362 Weather Reports


Display with metric or nautical units.
time (UTC)temp
F
wind
direction
speed
MPH
gust
MPH
rain 1hr
in
rain 24hr
in
rain mn
in
humidity
%
barometer
mb
20260508091704 35 296 0.0 0.0 0.00 0.01 0.00 91 1008.8
20260508091204 35 296 0.0 0.0 0.00 0.01 0.00 91 1008.7
20260508090704 35 296 0.0 0.0 0.00 0.01 0.00 91 1008.8
20260508090203 35 296 0.0 0.0 0.00 0.01 0.00 91 1008.8
20260508085704 35 296 0.0 0.0 0.00 0.01 0.00 91 1008.7
20260508085205 35 296 0.0 0.0 0.00 0.01 0.00 90 1008.7
20260508084704 35 296 0.0 0.0 0.00 0.01 0.00 90 1008.7
20260508084204 35 296 0.0 0.0 0.00 0.01 0.00 90 1008.7
20260508083703 36 296 0.0 0.0 0.00 0.01 0.00 90 1008.7
20260508083204 36 296 0.0 0.0 0.00 0.01 0.00 90 1008.7
20260508081704 36 296 0.0 0.0 0.00 0.01 0.00 89 1008.5
20260508081203 36 296 0.0 0.0 0.00 0.01 0.00 90 1008.4
20260508080704 36 296 0.0 0.0 0.00 0.01 0.00 90 1008.4
20260508080204 36 296 0.0 0.0 0.00 0.01 0.00 89 1008.3
20260508074704 37 296 0.0 0.0 0.00 0.01 0.00 89 1007.8
20260508074203 37 296 0.0 0.0 0.00 0.01 0.00 89 1007.7
20260508072704 37 296 0.0 0.0 0.00 0.01 0.00 88 1007.6
20260508072204 37 296 0.0 0.0 0.00 0.01 0.00 88 1007.5
20260508071704 38 296 0.0 0.0 0.00 0.01 0.00 88 1007.5
20260508070704 38 296 0.0 0.0 0.00 0.01 0.00 87 1007.5
20260508070204 38 296 0.0 0.0 0.00 0.01 0.00 87 1007.6
20260508065704 38 296 0.0 0.0 0.00 0.01 0.00 87 1007.6
20260508065203 38 296 0.0 0.0 0.00 0.01 0.00 87 1007.5
20260508064704 38 296 0.0 0.0 0.00 0.01 0.00 87 1007.5
20260508064204 39 296 0.0 0.0 0.00 0.01 0.00 87 1007.6
20260508063704 39 296 0.0 0.0 0.00 0.01 0.00 88 1007.6
20260508062703 39 333 0.0 3.0 0.00 0.01 0.00 86 1007.6
20260508062204 39 321 0.0 2.0 0.00 0.01 0.00 85 1007.6
20260508061704 39 321 0.0 0.0 0.00 0.01 0.00 85 1007.5
20260508060204 40 321 0.0 0.0 0.00 0.01 0.00 83 1007.6
20260508055704 40 321 0.0 0.0 0.00 0.01 0.00 83 1007.7
20260508054704 40 321 0.0 0.0 0.00 0.01 0.00 83 1007.8
20260508054204 41 321 0.0 0.0 0.00 0.01 0.00 82 1007.8
20260508053203 41 321 0.0 0.0 0.00 0.01 0.00 82 1007.8
20260508052203 41 321 0.0 0.0 0.00 0.01 0.00 81 1007.9
20260508051204 42 321 0.0 0.0 0.00 0.01 0.00 81 1008.0
20260508050704 42 321 0.0 0.0 0.00 0.01 0.00 81 1008.0
20260508044204 43 321 0.0 0.0 0.00 0.01 0.00 78 1008.2
20260508042204 44 321 0.0 0.0 0.00 0.01 0.00 80 1008.3
20260508041204 44 321 0.0 0.0 0.00 0.02 0.00 77 1008.2
20260508040704 44 321 0.0 0.0 0.00 0.02 0.00 77 1008.3
20260508040204 45 321 0.0 0.0 0.00 0.02 0.00 76 1008.2
20260508035203 45 321 0.0 0.0 0.00 0.02 0.02 74 1008.2
20260508034704 45 321 0.0 0.0 0.00 0.02 0.02 76 1008.2
20260508034204 45 321 0.0 0.0 0.00 0.02 0.02 76 1008.2
20260508033703 45 321 0.0 0.0 0.00 0.02 0.02 76 1008.2
20260508033204 45 321 0.0 0.0 0.00 0.02 0.02 75 1008.3
20260508032703 46 321 0.0 0.0 0.00 0.02 0.02 74 1008.3
20260508031703 46 321 0.0 0.0 0.00 0.02 0.02 74 1008.0
20260508031203 46 321 0.0 0.0 0.00 0.02 0.02 74 1008.0
20260508030704 46 321 0.0 0.0 0.00 0.02 0.02 73 1008.0
20260508024703 46 321 0.0 0.0 0.00 0.02 0.02 70 1008.0
20260508023203 47 321 0.0 0.0 0.00 0.02 0.02 70 1007.8
20260508022704 47 321 0.0 0.0 0.00 0.02 0.02 69 1007.7
20260508022204 47 321 0.0 0.0 0.00 0.02 0.02 67 1007.8
20260508021704 47 321 0.0 0.0 0.00 0.02 0.02 65 1007.9
20260508021204 48 321 0.0 0.0 0.00 0.02 0.02 65 1007.8
20260508020705 48 321 0.0 0.0 0.00 0.02 0.02 67 1007.7
20260508015204 49 321 0.0 0.0 0.00 0.02 0.02 65 1007.7
20260508013204 50 321 0.0 0.0 0.00 0.02 0.02 61 1007.3
20260508012204 51 321 0.0 0.0 0.00 0.02 0.02 62 1007.1
20260508011205 51 321 0.0 0.0 0.00 0.02 0.02 59 1007.0
20260508005703 52 321 0.0 1.0 0.00 0.02 0.02 54 1006.8
20260508005204 53 321 0.0 0.0 0.00 0.02 0.02 53 1006.7
20260508004204 53 321 0.0 0.0 0.00 0.02 0.02 51 1006.6
20260508002205 55 321 0.0 0.0 0.00 0.02 0.02 45 1006.5
20260508001204 55 321 0.0 0.0 0.00 0.02 0.02 44 1006.4
20260507235705 56 250 0.0 3.0 0.00 0.02 0.02 43 1006.2
20260507234705 57 258 0.0 1.0 0.00 0.02 0.02 43 1006.0
20260507233704 57 258 2.0 3.0 0.00 0.02 0.02 39 1006.1
20260507232205 58 336 1.0 3.0 0.00 0.02 0.02 41 1005.9
20260507231205 59 281 1.0 6.0 0.00 0.03 0.02 38 1005.7
20260507224705 60 44 0.0 2.0 0.00 0.07 0.02 37 1005.7
20260507224205 60 323 3.0 12.0 0.00 0.07 0.02 37 1005.7
20260507223705 60 319 3.0 9.0 0.00 0.07 0.02 35 1005.6
20260507223204 60 271 1.0 3.0 0.00 0.07 0.02 38 1005.5
20260507221704 61 221 2.0 7.0 0.00 0.08 0.02 36 1005.4
20260507220204 61 223 3.0 12.0 0.00 0.08 0.02 35 1005.3
20260507214704 62 302 2.0 6.0 0.00 0.09 0.02 36 1005.1
20260507214206 62 251 2.0 6.0 0.00 0.09 0.02 35 1005.1
20260507213704 62 273 1.0 7.0 0.00 0.09 0.02 37 1005.1
20260507212704 62 237 4.0 8.0 0.00 0.10 0.02 36 1005.1
20260507210206 63 157 1.0 8.0 0.00 0.10 0.02 36 1005.1
20260507203204 63 287 2.0 8.0 0.00 0.13 0.02 37 1005.0
20260507202705 63 274 2.0 7.0 0.00 0.13 0.02 39 1004.9
20260507202204 63 304 2.0 7.0 0.00 0.13 0.02 38 1005.0
20260507201705 63 10 2.0 8.0 0.00 0.13 0.02 38 1004.9
20260507201204 63 275 3.0 10.0 0.00 0.14 0.02 36 1005.0
20260507200705 63 255 2.0 9.0 0.00 0.14 0.02 39 1005.0
20260507200204 63 266 2.0 7.0 0.00 0.14 0.02 38 1005.0
20260507195204 63 220 3.0 6.0 0.00 0.14 0.02 38 1005.1
20260507193705 62 268 3.0 6.0 0.00 0.14 0.02 36 1005.3
20260507193205 62 251 3.0 9.0 0.00 0.14 0.02 37 1005.2
20260507192705 62 314 3.0 8.0 0.00 0.14 0.02 35 1005.3
20260507192204 62 277 1.0 7.0 0.00 0.14 0.02 37 1005.4
20260507191204 62 308 4.0 10.0 0.00 0.15 0.02 37 1005.5
20260507190204 62 245 2.0 7.0 0.00 0.16 0.02 35 1005.5
20260507185704 63 244 5.0 8.0 0.00 0.16 0.02 35 1005.6
20260507185205 63 268 2.0 8.0 0.00 0.16 0.02 38 1005.6
20260507184204 63 263 2.0 9.0 0.00 0.17 0.02 36 1005.8
20260507182705 63 289 4.0 7.0 0.00 0.18 0.02 37 1005.9
20260507182204 63 300 2.0 8.0 0.00 0.18 0.02 35 1005.9
20260507181705 63 286 2.0 7.0 0.00 0.18 0.02 34 1006.0
20260507181204 63 270 2.0 7.0 0.00 0.18 0.02 35 1006.0
20260507180704 63 283 2.0 9.0 0.00 0.18 0.02 38 1006.0
20260507180204 63 282 3.0 10.0 0.00 0.18 0.02 38 1006.0
20260507173205 62 262 3.0 10.0 0.00 0.18 0.02 36 1006.0
20260507172204 62 260 2.0 9.0 0.00 0.18 0.02 39 1005.9
20260507170704 61 251 3.0 12.0 0.00 0.18 0.02 36 1006.0
20260507164204 61 314 3.0 9.0 0.00 0.18 0.02 41 1006.5
20260507162704 61 354 2.0 8.0 0.00 0.18 0.02 44 1006.5
20260507162205 61 245 1.0 7.0 0.00 0.18 0.02 49 1006.6
20260507161204 60 196 2.0 7.0 0.00 0.18 0.02 46 1006.6
20260507160704 60 324 3.0 7.0 0.00 0.18 0.02 49 1006.7
20260507155704 60 253 1.0 8.0 0.00 0.18 0.02 52 1006.6
20260507154704 59 256 4.0 7.0 0.00 0.18 0.02 51 1006.7
20260507154204 59 215 2.0 6.0 0.00 0.18 0.02 51 1006.7
20260507153704 59 210 3.0 5.0 0.00 0.18 0.02 55 1006.8
20260507153204 59 290 1.0 6.0 0.00 0.18 0.02 56 1006.8
20260507152704 59 253 2.0 8.0 0.00 0.18 0.02 57 1006.9
20260507151704 59 260 1.0 9.0 0.00 0.18 0.02 59 1006.9
20260507151204 59 305 1.0 6.0 0.00 0.18 0.02 63 1007.0
20260507145204 58 305 2.0 6.0 0.00 0.18 0.02 62 1007.3
20260507144704 58 303 3.0 8.0 0.00 0.18 0.02 62 1007.2
20260507141704 58 337 0.0 6.0 0.00 0.18 0.02 63 1007.1
20260507135204 56 228 1.0 3.0 0.00 0.18 0.02 66 1007.1
20260507134205 56 297 2.0 3.0 0.00 0.18 0.02 68 1007.0
20260507133204 55 314 1.0 5.0 0.00 0.18 0.02 67 1007.1
20260507132704 55 258 1.0 3.0 0.00 0.18 0.02 69 1007.3
20260507132204 55 281 1.0 6.0 0.00 0.18 0.02 70 1007.3
20260507131206 54 243 0.0 3.0 0.00 0.18 0.02 71 1007.5
20260507130704 54 246 1.0 3.0 0.00 0.18 0.02 72 1007.5
20260507125704 53 358 1.0 3.0 0.00 0.18 0.02 75 1007.6
20260507125204 53 260 1.0 5.0 0.00 0.18 0.02 75 1007.6
20260507124705 53 217 0.0 3.0 0.00 0.18 0.02 76 1007.6
20260507124204 53 249 2.0 5.0 0.00 0.18 0.02 76 1007.6
20260507122705 52 347 2.0 5.0 0.00 0.18 0.02 81 1007.7
20260507122204 51 58 1.0 3.0 0.00 0.18 0.02 81 1007.8
20260507121704 51 347 1.0 3.0 0.00 0.18 0.02 82 1007.8
20260507120704 50 341 2.0 6.0 0.00 0.18 0.02 85 1007.8
20260507115705 49 251 0.0 2.0 0.00 0.18 0.02 87 1007.8
20260507115204 49 291 0.0 1.0 0.00 0.18 0.02 87 1007.8
20260507114704 49 292 0.0 2.0 0.00 0.18 0.02 87 1007.7
20260507112704 49 5 0.0 2.0 0.00 0.18 0.02 87 1007.6
20260507111205 49 15 0.0 0.0 0.00 0.18 0.02 89 1007.7
20260507110704 49 344 1.0 2.0 0.00 0.18 0.02 89 1007.7
20260507105204 49 6 0.0 2.0 0.00 0.18 0.02 91 1007.3
20260507104704 48 9 0.0 1.0 0.00 0.18 0.02 91 1007.4
20260507104204 48 9 0.0 0.0 0.00 0.18 0.02 91 1007.2
20260507103704 48 9 0.0 0.0 0.00 0.18 0.02 91 1007.1
20260507103204 48 9 0.0 0.0 0.00 0.18 0.02 91 1007.0
20260507102703 48 9 0.0 0.0 0.00 0.18 0.02 91 1007.1
20260507102204 48 9 0.0 0.0 0.00 0.18 0.02 91 1006.9
20260507101704 48 9 0.0 1.0 0.01 0.18 0.02 91 1007.1
20260507101204 48 9 0.0 0.0 0.01 0.18 0.02 91 1007.0
20260507100704 48 9 0.0 1.0 0.01 0.18 0.02 91 1007.2
20260507095703 49 9 0.0 3.0 0.01 0.18 0.02 91 1006.8
20260507095204 49 28 0.0 2.0 0.01 0.18 0.02 92 1006.9
20260507094204 49 259 0.0 0.0 0.01 0.18 0.02 92 1007.3
20260507093204 49 259 0.0 0.0 0.01 0.18 0.02 92 1007.2